Weather History for Bandarabbass, Iran

Change the Weather History Date:

Sunday, February 17, 2013

  Actual Average Record
Temperature  
Mean Temperature 67 °F -  
Max Temperature 77 °F 79 °F - ()
Min Temperature 57 °F 61 °F - ()
Cooling Degree Days 2    
Growing Degree Days 17 (Base 50)    
Moisture  
Dew Point 60 °F    
Average Humidity 69    
Maximum Humidity 94    
Minimum Humidity 40    
Precipitation  
Precipitation 0.00 in 0.05 in - ()
Sea Level Pressure  
Sea Level Pressure 29.84 in    
Wind  
Wind Speed 7 mph ()    
Max Wind Speed 14 mph    
Max Gust Speed -    
Visibility 3.1 miles    
Events      
T = Trace of Precipitation, MM = Missing Value Source: Averaged Metar Reports

Daily Weather History Graph

Daily Weather History Graph

Search for Another Location

Airport:

Trip Planner

Search our weather history database for the weather conditions in past years. The results will help you decide how hot, cold, wet, or windy it might be!

Date:

Astronomy

Feb. 17, 2013 Rise Set
Actual Time 6:19 AM IRST 5:37 PM IRST
Civil Twilight 5:55 AM IRST 6:01 PM IRST
Nautical Twilight 5:28 AM IRST 6:28 PM IRST
Astronomical Twilight 5:01 AM IRST 6:55 PM IRST
Moon 10:37 AM IRST (2/17) 12:23 AM IRST (2/18)
Length of Visible Light 12h 05m
Length of Day
11h 18m
Waxing Crescent, 45% of the Moon is Illuminated
Feb 17
Waxing Crescent
Feb 18
First Quarter
Feb 25
Full
Mar 5
Last Quarter
Mar 11
New

Hourly Weather History & Observations

Time (IRST) Temp. Dew Point Humidity Pressure Visibility Wind Dir Wind Speed Gust Speed Precip Events Conditions
12:00 AM 62.6 °F 57.2 °F 82% 29.89 in 4.3 mi NNE 6.9 mph - N/A   Unknown
12:30 AM 62.6 °F 55.4 °F 77% 29.89 in 4.3 mi North 4.6 mph - N/A   Clear
1:00 AM 62.6 °F 57.2 °F 82% 29.86 in 4.3 mi North 6.9 mph - N/A   Clear
1:30 AM 60.8 °F 57.2 °F 88% 29.86 in 3.7 mi NNW 6.9 mph - N/A   Clear
3:30 AM 60.8 °F 55.4 °F 82% 29.83 in 3.7 mi North 4.6 mph - N/A   Clear
5:30 AM 59.0 °F 55.4 °F 88% 29.86 in 3.1 mi NNW 4.6 mph - N/A   Clear
6:00 AM 59.0 °F 55.4 °F 88% 29.86 in 3.1 mi NNW 4.6 mph - N/A   Mist
6:30 AM 57.2 °F 55.4 °F 94% 29.86 in 1.9 mi NNW 4.6 mph - N/A   Mist
7:00 AM 59.0 °F 55.4 °F 88% 29.89 in 2.5 mi NW 4.6 mph - N/A   Mist
7:30 AM 60.8 °F 57.2 °F 88% 29.89 in 2.5 mi NNW 4.6 mph - N/A   Mist
8:00 AM 66.2 °F 60.8 °F 83% 29.89 in 2.5 mi NNE 4.6 mph - N/A   Partly Cloudy
8:30 AM 68.0 °F 59.0 °F 73% 29.92 in 2.5 mi North 6.9 mph - N/A   Haze
9:00 AM 69.8 °F 59.0 °F 68% 29.92 in 2.5 mi NNE 4.6 mph - N/A   Haze
9:30 AM 72 °F 60 °F 56% 29.93 in 3 mi ENE 4.5 mph - -   Haze
9:30 AM 71.6 °F 59.0 °F 64% 29.92 in 3.1 mi ENE 4.6 mph - N/A   Haze
10:00 AM 73.4 °F 59.0 °F 61% 29.92 in 3.1 mi ENE 4.6 mph - N/A   Haze
10:30 AM 75.2 °F 59.0 °F 57% 29.89 in 3.1 mi ESE 4.6 mph - N/A   Haze
11:00 AM 75.2 °F 60.8 °F 61% 29.89 in 3.1 mi SE 4.6 mph - N/A   Haze
11:30 AM 77.0 °F 59.0 °F 54% 29.86 in 3.1 mi SW 4.6 mph - N/A   Haze
12:00 PM 77.0 °F 53.6 °F 44% 29.86 in 3.1 mi WSW 6.9 mph - N/A   Haze
12:30 PM 77.0 °F 51.8 °F 41% 29.86 in 3.7 mi SSW 11.5 mph - N/A   Unknown
1:00 PM 77.0 °F 57.2 °F 50% 29.86 in 3.7 mi SSW 11.5 mph - N/A   Unknown
1:30 PM 77.0 °F 57.2 °F 50% 29.83 in 3.7 mi SW 11.5 mph - N/A   Unknown
2:00 PM 77.0 °F 57.2 °F 50% 29.83 in 3.1 mi SSW 11.5 mph - N/A   Haze
2:30 PM 77.0 °F 57.2 °F 50% 29.80 in 3.1 mi South 11.5 mph - N/A   Haze
3:00 PM 77.0 °F 55.4 °F 47% 29.80 in 3.1 mi SW 13.8 mph - N/A   Haze
3:30 PM 77 °F 57 °F 40% 29.81 in 3 mi SW 11.2 mph - -   Haze
3:30 PM 77.0 °F 57.2 °F 50% 29.80 in 3.1 mi SW 11.5 mph - N/A   Haze
4:00 PM 77.0 °F 59.0 °F 54% 29.77 in 3.1 mi SSW 11.5 mph - N/A   Haze
4:20 PM 77.0 °F 60.8 °F 57% 29.77 in 3.1 mi South 13.8 mph - N/A   Haze
4:30 PM 77.0 °F 60.8 °F 57% 29.77 in 3.1 mi South 13.8 mph - N/A   Haze
5:00 PM 75.2 °F 60.8 °F 61% 29.80 in 3.1 mi SSW 13.8 mph - N/A   Haze
5:20 PM 75.2 °F 62.6 °F 65% 29.80 in 3.1 mi SSW 13.8 mph - N/A   Haze
5:30 PM 75.2 °F 62.6 °F 65% 29.80 in 3.1 mi SSW 13.8 mph - N/A   Haze
6:00 PM 73.4 °F 64.4 °F 73% 29.80 in 3.1 mi SW 13.8 mph - N/A   Haze
6:20 PM 73.4 °F 64.4 °F 73% 29.80 in 3.1 mi SSW 13.8 mph - N/A   Haze
6:30 PM 73.4 °F 64.4 °F 73% 29.80 in 3.1 mi SSW 13.8 mph - N/A   Haze
7:00 PM 71.6 °F 64.4 °F 78% 29.80 in 3.1 mi SW 13.8 mph - N/A   Haze
7:20 PM 71.6 °F 64.4 °F 78% 29.83 in 3.1 mi SSW 13.8 mph - N/A   Haze
7:30 PM 71.6 °F 64.4 °F 78% 29.83 in 3.1 mi SSW 13.8 mph - N/A   Haze
8:00 PM 71.6 °F 64.4 °F 78% 29.83 in 3.1 mi WSW 9.2 mph - N/A   Haze
8:20 PM 71.6 °F 64.4 °F 78% 29.83 in 3.1 mi WSW 11.5 mph - N/A   Haze
8:30 PM 71.6 °F 64.4 °F 78% 29.83 in 3.1 mi WSW 11.5 mph - N/A   Haze
9:00 PM 71.6 °F 62.6 °F 73% 29.86 in 3.1 mi SW 6.9 mph - N/A   Haze
9:20 PM 71.6 °F 64.4 °F 78% 29.83 in 3.1 mi SSW 6.9 mph - N/A   Haze
9:30 PM 72 °F 64 °F 70% 29.85 in 3 mi SSW 6.7 mph - -   Haze
9:30 PM 71.6 °F 64.4 °F 78% 29.83 in 3.1 mi SSW 6.9 mph - N/A   Haze
10:00 PM 71.6 °F 64.4 °F 78% 29.83 in 3.1 mi SW 4.6 mph - N/A   Haze
10:20 PM 71.6 °F 64.4 °F 78% 29.86 in 3.1 mi South 4.6 mph - N/A   Haze
10:30 PM 71.6 °F 64.4 °F 78% 29.86 in 3.1 mi South 4.6 mph - N/A   Haze
11:00 PM 71.6 °F 64.4 °F 78% 29.86 in 3.1 mi South 6.9 mph - N/A   Haze
11:20 PM 71.6 °F 64.4 °F 78% 29.83 in 3.1 mi ESE 4.6 mph - N/A   Mist
11:30 PM 71.6 °F 64.4 °F 78% 29.83 in 3.1 mi ESE 4.6 mph - N/A   Mist